Location: Bow
(51.5261°N, 0.0167°W)
Time: 23:10:44
(UTC+00:00)

COSMOS 2406 - Pass Details

Date: 18 September 2020
Orbit: 844 x 863 km, 71.0° (Epoch: 30 October)

Event Time Altitude Azimuth Distance (km) Brightness Sun altitude
Rises 20:45:27 0° 330° (NNW) 3,416 7.5 -23.8°
Reaches altitude 10° 20:47:55 10° 332° (NNW) 2,477 6.5 -24.1°
Maximum altitude 20:53:36 76° 58° (ENE) 877 3.1 -24.8°
Enters shadow 20:54:19 66° 113° (ESE) 924 3.1 -24.9°
